Preview of NWS' New Version of Forecast
This preview is not operational and should not be used for support decisions.

Regional Weather Roundup (RWR)

Issued by National Weather Service (NWS)

                            
000
ASUS43 KBIS 172310
RWRND 

NORTH DAKOTA REGIONAL WEATHER ROUNDUP
NATIONAL WEATHER SERVICE BISMARCK ND
600 PM CDT WED APR 17 2019

NOTE: "FAIR" INDICATES FEW OR NO CLOUDS BELOW 12,000 FEET WITH NO
SIGNIFICANT WEATHER AND/OR OBSTRUCTIONS TO VISIBILITY.


NDZ001>003-009>011-017-180000-
NORTHWEST NORTH DAKOTA
  
CITY           SKY/WX    TMP DP  RH WIND       PRES   REMARKS
WILLISTON      MOSUNNY   56  35  45 NW9       29.80S                  
MINOT          CLOUDY    49  40  71 CALM      29.82F                  
$$
 
NDZ018>021-031>035-040>046-180000-
SOUTHWEST NORTH DAKOTA
  
CITY           SKY/WX    TMP DP  RH WIND       PRES   REMARKS
BISMARCK       CLOUDY    47  42  83 CALM      29.84S                  
DICKINSON      CLOUDY    52  34  50 NW26G40   29.81R                  
GARRISON         N/A     46  42  86 W5        29.81F                  
HETTINGER ARPT LGT RAIN  48  35  60 W31G41    29.85R                  
$$
 
NDZ004>008-012>016-024-026-027-054-180000-
NORTHEAST NORTH DAKOTA
  
CITY           SKY/WX    TMP DP  RH WIND       PRES   REMARKS
GRAND FORKS    CLOUDY    47  43  86 E5        29.82S                  
GRND FRKS AFB  CLOUDY    47  47  99 E3        29.82S                  
DEVILS LAKE    LGT RAIN  44  41  89 SE6       29.84S                  
$$
 
NDZ022-023-025-028>030-036>039-047>053-180000-
SOUTHEAST NORTH DAKOTA
  
CITY           SKY/WX    TMP DP  RH WIND       PRES   REMARKS
FARGO          CLOUDY    48  43  82 NE12      29.79R                  
JAMESTOWN      LGT RAIN  46  43  89 N8        29.81R                  
$$